Voltar ao catálogo

SJ-11-07

AtivoCiênciaSSO
NORAD 40261·PAYLOAD·🇨🇳 China

Lançado Sep 28, 2014 de Jiuquan Satellite Launch Center

Loading…

Próximas Passagens (próximas 24 horas)

TLE

AtualizadoSource: Space-Track

Época: Sep 14, 2026, 15:32 UTC

1 40261U 14059A   26257.64746198  .00000393  00000-0  84136-4 0  9990
2 40261  97.9864 324.2458 0009591 222.9297 137.1158 14.63809932638001

Acompanhe SJ-11-07 em tempo real com AllMySat

Download on the App Store